Weather History for Show Low, AZ

Change the Weather History Date:

Monday, July 29, 2013

  Actual Average Record
Temperature  
Mean Temperature 68 °F -  
Max Temperature 80 °F 80 °F 94 °F (1972)
Min Temperature 57 °F 62 °F 50 °F (1968)
Cooling Degree Days 4    
Growing Degree Days 18 (Base 50)    
Moisture  
Dew Point 46 °F    
Average Humidity 46    
Maximum Humidity 77    
Minimum Humidity 26    
Precipitation  
Precipitation 0.00 in - - ()
Sea Level Pressure  
Sea Level Pressure 30.28 in    
Wind  
Wind Speed 8 mph (SSW)    
Max Wind Speed 18 mph    
Max Gust Speed 22 mph    
Visibility 10 miles    
Events      
Averages and records for this station are not official NWS values.
T = Trace of Precipitation, MM = Missing Value Source: NWS Daily Summary

Daily Weather History Graph

Daily Weather History Graph

Search for Another Location

Airport:

Trip Planner

Search our weather history database for the weather conditions in past years. The results will help you decide how hot, cold, wet, or windy it might be!

Date:

Astronomy

Jul. 29, 2013 Rise Set
Actual Time 5:28 AM MST 7:23 PM MST
Civil Twilight 5:01 AM MST 7:51 PM MST
Nautical Twilight 4:27 AM MST 8:24 PM MST
Astronomical Twilight 3:51 AM MST 9:00 PM MST
Moon 11:47 PM MST (7/29) 12:51 PM MST (7/29)
Length of Visible Light 14h 49m
Length of Day
13h 54m
Waning Gibbous, 50% of the Moon is Illuminated
Jul 29
Waning Gibbous
Aug 6
New
Aug 14
First Quarter
Aug 20
Full
Aug 28
Last Quarter

Hourly Weather History & Observations

Time (MST) Temp. Dew Point Humidity Pressure Visibility Wind Dir Wind Speed Gust Speed Precip Events Conditions
12:55 AM 59.0 °F 48.2 °F 67% 30.21 in 10.0 mi Calm Calm - N/A   Clear
1:15 AM 57.2 °F 50.0 °F 77% 30.21 in 10.0 mi Calm Calm - N/A   Clear
1:35 AM 57.2 °F 50.0 °F 77% 30.21 in 10.0 mi South 4.6 mph - N/A   Clear
1:55 AM 57.2 °F 50.0 °F 77% 30.21 in 10.0 mi South 5.8 mph - N/A   Clear
2:15 AM 57.2 °F 50.0 °F 77% 30.22 in 10.0 mi SSW 5.8 mph - N/A   Clear
2:35 AM 57.2 °F 50.0 °F 77% 30.21 in 10.0 mi SSW 5.8 mph - N/A   Clear
2:55 AM 57.2 °F 50.0 °F 77% 30.21 in 10.0 mi South 8.1 mph - N/A   Clear
3:15 AM 59.0 °F 50.0 °F 72% 30.21 in 10.0 mi South 10.4 mph - N/A   Clear
3:35 AM 59.0 °F 50.0 °F 72% 30.22 in 10.0 mi SSW 6.9 mph - N/A   Clear
3:55 AM 59.0 °F 50.0 °F 72% 30.22 in 10.0 mi South 10.4 mph - N/A   Clear
4:15 AM 59.0 °F 48.2 °F 67% 30.22 in 10.0 mi South 9.2 mph - N/A   Clear
4:35 AM 59.0 °F 48.2 °F 67% 30.22 in 10.0 mi South 11.5 mph - N/A   Clear
4:55 AM 59.0 °F 48.2 °F 67% 30.23 in 10.0 mi South 10.4 mph - N/A   Clear
5:15 AM 59.0 °F 48.2 °F 67% 30.24 in 10.0 mi South 11.5 mph - N/A   Clear
5:35 AM 59.0 °F 48.2 °F 67% 30.24 in 10.0 mi South 9.2 mph - N/A   Clear
5:55 AM 59.0 °F 46.4 °F 63% 30.25 in 10.0 mi South 8.1 mph - N/A   Clear
6:15 AM 59.0 °F 48.2 °F 67% 30.26 in 10.0 mi South 9.2 mph - N/A   Clear
6:35 AM 62.6 °F 48.2 °F 59% 30.26 in 10.0 mi South 10.4 mph - N/A   Clear
7:15 AM 64.4 °F 48.2 °F 56% 30.27 in 10.0 mi South 10.4 mph - N/A   Clear
7:35 AM 66.2 °F 48.2 °F 52% 30.28 in 10.0 mi South 10.4 mph - N/A   Clear
7:55 AM 68.0 °F 46.4 °F 46% 30.28 in 10.0 mi SSW 10.4 mph - N/A   Clear
8:15 AM 68.0 °F 46.4 °F 46% 30.28 in 10.0 mi South 13.8 mph - N/A   Clear
8:35 AM 69.8 °F 44.6 °F 40% 30.28 in 10.0 mi SSW 12.7 mph - N/A   Clear
8:55 AM 71.6 °F 44.6 °F 38% 30.29 in 10.0 mi South 13.8 mph - N/A   Clear
9:15 AM 71.6 °F 44.6 °F 38% 30.29 in 10.0 mi SSW 12.7 mph - N/A   Clear
9:35 AM 71.6 °F 46.4 °F 41% 30.30 in 10.0 mi SW 9.2 mph - N/A   Clear
9:55 AM 73.4 °F 44.6 °F 36% 30.30 in 10.0 mi SW 10.4 mph - N/A   Clear
10:15 AM 73.4 °F 44.6 °F 36% 30.30 in 10.0 mi SW 9.2 mph - N/A   Clear
10:35 AM 73.4 °F 46.4 °F 38% 30.30 in 10.0 mi SW 12.7 mph 18.4 mph N/A   Clear
10:55 AM 75.2 °F 46.4 °F 36% 30.31 in 10.0 mi SW 13.8 mph 17.3 mph N/A   Clear
11:15 AM 75.2 °F 46.4 °F 36% 30.31 in 10.0 mi SW 13.8 mph - N/A   Clear
11:35 AM 75.2 °F 46.4 °F 36% 30.31 in 10.0 mi SSW 15.0 mph - N/A   Clear
11:55 AM 75.2 °F 48.2 °F 38% 30.31 in 10.0 mi SSW 12.7 mph - N/A   Clear
12:15 PM 77.0 °F 46.4 °F 34% 30.31 in 10.0 mi SSW 10.4 mph 18.4 mph N/A   Clear
12:35 PM 77.0 °F 46.4 °F 34% 30.31 in 10.0 mi SSW 16.1 mph - N/A   Clear
12:55 PM 77.0 °F 44.6 °F 32% 30.31 in 10.0 mi South 13.8 mph 20.7 mph N/A   Clear
1:15 PM 78.8 °F 44.6 °F 30% 30.30 in 10.0 mi SSW 12.7 mph 19.6 mph N/A   Clear
1:35 PM 78.8 °F 44.6 °F 30% 30.30 in 10.0 mi SW 13.8 mph 19.6 mph N/A   Clear
1:55 PM 78.8 °F 44.6 °F 30% 30.30 in 10.0 mi WSW 11.5 mph - N/A   Clear
2:15 PM 80.6 °F 46.4 °F 30% 30.30 in 10.0 mi SW 13.8 mph 19.6 mph N/A   Partly Cloudy
2:35 PM 80.6 °F 46.4 °F 30% 30.29 in 10.0 mi WSW 13.8 mph 19.6 mph N/A   Partly Cloudy
2:55 PM 80.6 °F 44.6 °F 28% 30.29 in 10.0 mi WSW 10.4 mph 21.9 mph N/A   Clear
3:15 PM 80.6 °F 44.6 °F 28% 30.29 in 10.0 mi SW 15.0 mph 20.7 mph N/A   Scattered Clouds
3:35 PM 80.6 °F 44.6 °F 28% 30.28 in 10.0 mi SW 13.8 mph - N/A   Partly Cloudy
3:55 PM 80.6 °F 44.6 °F 28% 30.28 in 10.0 mi West 18.4 mph 21.9 mph N/A   Partly Cloudy
4:15 PM 80.6 °F 44.6 °F 28% 30.28 in 10.0 mi SW 13.8 mph 17.3 mph N/A   Partly Cloudy
4:35 PM 80.6 °F 42.8 °F 26% 30.28 in 10.0 mi West 8.1 mph - N/A   Clear
4:55 PM 80.6 °F 44.6 °F 28% 30.28 in 10.0 mi West 9.2 mph - N/A   Clear
5:15 PM 80.6 °F 44.6 °F 28% 30.27 in 10.0 mi West 13.8 mph - N/A   Clear
5:35 PM 78.8 °F 44.6 °F 30% 30.27 in 10.0 mi SW 12.7 mph - N/A   Clear
5:55 PM 78.8 °F 44.6 °F 30% 30.28 in 10.0 mi SW 11.5 mph - N/A   Clear
6:15 PM 77.0 °F 44.6 °F 32% 30.28 in 10.0 mi West 11.5 mph - N/A   Clear
6:35 PM 77.0 °F 44.6 °F 32% 30.28 in 10.0 mi WSW 9.2 mph - N/A   Clear
6:55 PM 75.2 °F 42.8 °F 31% 30.29 in 10.0 mi WSW 10.4 mph - N/A   Clear
7:15 PM 73.4 °F 42.8 °F 33% 30.29 in 10.0 mi WSW 8.1 mph - N/A   Clear
7:35 PM 71.6 °F 44.6 °F 38% 30.30 in 10.0 mi WSW 8.1 mph - N/A   Clear
7:55 PM 68.0 °F 44.6 °F 43% 30.30 in 10.0 mi WSW 6.9 mph - N/A   Clear
8:15 PM 68.0 °F 44.6 °F 43% 30.31 in 10.0 mi SW 6.9 mph - N/A   Clear
8:35 PM 68.0 °F 44.6 °F 43% 30.32 in 10.0 mi SW 8.1 mph - N/A   Clear
8:55 PM 68.0 °F 44.6 °F 43% 30.34 in 10.0 mi South 5.8 mph - N/A   Clear
9:15 PM 66.2 °F 44.6 °F 46% 30.34 in 10.0 mi South 8.1 mph - N/A   Clear
9:35 PM 66.2 °F 44.6 °F 46% 30.35 in 10.0 mi South 6.9 mph - N/A   Clear
9:55 PM 64.4 °F 44.6 °F 49% 30.36 in 10.0 mi South 6.9 mph - N/A   Clear
10:15 PM 64.4 °F 44.6 °F 49% 30.36 in 10.0 mi SSW 8.1 mph - N/A   Clear
10:35 PM 64.4 °F 44.6 °F 49% 30.36 in 10.0 mi South 9.2 mph - N/A   Clear
10:55 PM 64.4 °F 44.6 °F 49% 30.36 in 10.0 mi South 8.1 mph - N/A   Clear
11:15 PM 64.4 °F 44.6 °F 49% 30.37 in 10.0 mi South 9.2 mph - N/A   Clear
11:35 PM 64.4 °F 42.8 °F 45% 30.37 in 10.0 mi South 9.2 mph - N/A   Unknown
11:55 PM 64.4 °F 42.8 °F 45% 30.37 in 10.0 mi South 6.9 mph - N/A   Clear